"Sample Date","Sample Time","Sample Value","Units","Flow Rate","Number Channels","Micron Size 0","Counts/Channel 0","Micron Size 1","Counts/Channel 1","Micron Size 2","Counts/Channel 2","Micron Size 3","Counts/Channel 3","Micron Size 4","Counts/Channel 4","Micron Size 5","Counts/Channel 5","Micron Size 6","Counts/Channel 6","Micron Size 7","Counts/Channel 7","Micron Size 8","Counts/Channel 8","Micron Size 9","Counts/Channel 9","Micron Size 10","Counts/Channel 10","Micron Size 11","Counts/Channel 11","Micron Size 12","Counts/Channel 12","Micron Size 13","Counts/Channel 13","Micron Size 14","Counts/Channel 14","Micron Size 15","Counts/Channel 15","Micron Size 16","Counts/Channel 16","Micron Size 17","Counts/Channel 17","Micron Size 18","Counts/Channel 18","Micron Size 19","Counts/Channel 19","Micron Size 20","Counts/Channel 20","Micron Size 21","Counts/Channel 21","Micron Size 22","Counts/Channel 22","Micron Size 23","Counts/Channel 23","Micron Size 24","Counts/Channel 24","Micron Size 25","Counts/Channel 25","Micron Size 26","Counts/Channel 26","Micron Size 27","Counts/Channel 27","Micron Size 28","Counts/Channel 28","Micron Size 29","Counts/Channel 29","Micron Size 30","Counts/Channel 30","Micron Size 31","Counts/Channel 31"
"05/08/08","11:00:03",2126.000,"cc",28315.678,6,0.100,1686.000,0.200,363.000,0.300,58.000,0.500,17.000,1.000,2.000,5.000,0
"05/08/08","11:00:09",2177.000,"cc",28359.037,6,0.100,1715.000,0.200,378.000,0.300,59.000,0.500,20.000,1.000,5.000,5.000,0
"05/08/08","11:00:15",2144.000,"cc",28320.416,6,0.100,1670.000,0.200,414.000,0.300,45.000,0.500,11.000,1.000,4.000,5.000,0
"05/08/08","11:00:21",2171.000,"cc",28306.744,6,0.100,1689.000,0.200,383.000,0.300,71.000,0.500,23.000,1.000,5.000,5.000,0
"05/08/08","11:00:27",2268.000,"cc",28275.779,6,0.100,1764.000,0.200,408.000,0.300,66.000,0.500,22.000,1.000,8.000,5.000,0
"05/08/08","11:00:33",2161.000,"cc",28323.857,6,0.100,1684.000,0.200,405.000,0.300,52.000,0.500,17.000,1.000,3.000,5.000,0
"05/08/08","11:00:39",2160.000,"cc",28330.672,6,0.100,1674.000,0.200,411.000,0.300,51.000,0.500,19.000,1.000,5.000,5.000,0
"05/08/08","11:00:45",2167.000,"cc",28389.881,6,0.100,1693.000,0.200,381.000,0.300,54.000,0.500,33.000,1.000,6.000,5.000,0
"05/08/08","11:00:51",2155.000,"cc",28316.666,6,0.100,1722.000,0.200,373.000,0.300,47.000,0.500,11.000,1.000,2.000,5.000,0
"05/08/08","11:00:57",2126.000,"cc",28325.395,6,0.100,1672.000,0.200,366.000,0.300,73.000,0.500,14.000,1.000,1.000,5.000,0
"05/08/08","11:01:03",2222.000,"cc",28298.350,6,0.100,1782.000,0.200,351.000,0.300,57.000,0.500,24.000,1.000,8.000,5.000,0
"05/08/08","11:01:09",2122.000,"cc",28330.691,6,0.100,1691.000,0.200,359.000,0.300,52.000,0.500,15.000,1.000,5.000,5.000,0
"05/08/08","11:01:15",2072.000,"cc",28260.039,6,0.100,1651.000,0.200,356.000,0.300,55.000,0.500,7.000,1.000,3.000,5.000,0
"05/08/08","11:01:21",2201.000,"cc",28273.240,6,0.100,1746.000,0.200,384.000,0.300,58.000,0.500,11.000,1.000,2.000,5.000,0
"05/08/08","11:01:27",2220.000,"cc",28338.607,6,0.100,1736.000,0.200,401.000,0.300,58.000,0.500,21.000,1.000,4.000,5.000,0
"05/08/08","11:01:33",2119.000,"cc",28306.902,6,0.100,1668.000,0.200,381.000,0.300,53.000,0.500,15.000,1.000,2.000,5.000,0
"05/08/08","11:01:39",2072.000,"cc",28310.795,6,0.100,1628.000,0.200,366.000,0.300,58.000,0.500,19.000,1.000,1.000,5.000,0
"05/08/08","11:01:45",2156.000,"cc",28400.098,6,0.100,1700.000,0.200,379.000,0.300,59.000,0.500,15.000,1.000,3.000,5.000,0
"05/08/08","11:01:51",2207.000,"cc",28274.027,6,0.100,1738.000,0.200,387.000,0.300,60.000,0.500,21.000,1.000,1.000,5.000,0
"05/08/08","11:01:57",2123.000,"cc",28231.006,6,0.100,1701.000,0.200,349.000,0.300,55.000,0.500,14.000,1.000,4.000,5.000,0
"05/08/08","11:02:03",2127.000,"cc",28336.723,6,0.100,1672.000,0.200,368.000,0.300,67.000,0.500,19.000,1.000,1.000,5.000,0
"05/08/08","11:02:09",2184.000,"cc",28386.709,6,0.100,1722.000,0.200,377.000,0.300,64.000,0.500,19.000,1.000,2.000,5.000,0
"05/08/08","11:02:15",2257.000,"cc",28288.279,6,0.100,1763.000,0.200,419.000,0.300,52.000,0.500,18.000,1.000,5.000,5.000,0
"05/08/08","11:02:21",2107.000,"cc",28332.693,6,0.100,1630.000,0.200,389.000,0.300,62.000,0.500,25.000,1.000,1.000,5.000,0
"05/08/08","11:02:27",1996.000,"cc",28303.471,6,0.100,1588.000,0.200,333.000,0.300,51.000,0.500,18.000,1.000,6.000,5.000,0
"05/08/08","11:02:33",2162.000,"cc",28306.332,6,0.100,1694.000,0.200,387.000,0.300,61.000,0.500,15.000,1.000,5.000,5.000,0
"05/08/08","11:02:39",2149.000,"cc",28289.293,6,0.100,1727.000,0.200,362.000,0.300,46.000,0.500,14.000,1.000,0,5.000,0
"05/08/08","11:02:45",2180.000,"cc",28298.256,6,0.100,1730.000,0.200,364.000,0.300,67.000,0.500,17.000,1.000,2.000,5.000,0
"05/08/08","11:02:51",2164.000,"cc",28336.445,6,0.100,1715.000,0.200,365.000,0.300,67.000,0.500,13.000,1.000,4.000,5.000,0
"05/08/08","11:02:57",2192.000,"cc",28295.059,6,0.100,1706.000,0.200,404.000,0.300,59.000,0.500,20.000,1.000,3.000,5.000,0
"05/08/08","11:03:03",2117.000,"cc",28338.365,6,0.100,1697.000,0.200,355.000,0.300,51.000,0.500,7.000,1.000,7.000,5.000,0
"05/08/08","11:03:09",2244.000,"cc",28264.555,6,0.100,1804.000,0.200,377.000,0.300,40.000,0.500,16.000,1.000,7.000,5.000,0
"05/08/08","11:03:15",2210.000,"cc",28340.029,6,0.100,1788.000,0.200,354.000,0.300,52.000,0.500,14.000,1.000,2.000,5.000,0
"05/08/08","11:03:21",2247.000,"cc",28253.035,6,0.100,1773.000,0.200,395.000,0.300,64.000,0.500,13.000,1.000,2.000,5.000,0
"05/08/08","11:03:27",2234.000,"cc",28372.481,6,0.100,1765.000,0.200,398.000,0.300,49.000,0.500,17.000,1.000,5.000,5.000,0
"05/08/08","11:03:33",2190.000,"cc",28250.650,6,0.100,1755.000,0.200,372.000,0.300,47.000,0.500,13.000,1.000,3.000,5.000,0
"05/08/08","11:03:39",2295.000,"cc",28322.098,6,0.100,1807.000,0.200,404.000,0.300,57.000,0.500,21.000,1.000,6.000,5.000,0
"05/08/08","11:03:45",2229.000,"cc",28296.199,6,0.100,1766.000,0.200,391.000,0.300,52.000,0.500,15.000,1.000,5.000,5.000,0
"05/08/08","11:03:51",2276.000,"cc",28311.805,6,0.100,1824.000,0.200,371.000,0.300,65.000,0.500,12.000,1.000,4.000,5.000,0
"05/08/08","11:03:57",2237.000,"cc",28367.711,6,0.100,1759.000,0.200,402.000,0.300,50.000,0.500,18.000,1.000,8.000,5.000,0
"05/08/08","11:04:03",2182.000,"cc",28330.209,6,0.100,1710.000,0.200,393.000,0.300,61.000,0.500,16.000,1.000,2.000,5.000,0
"05/08/08","11:04:09",2094.000,"cc",28354.842,6,0.100,1635.000,0.200,384.000,0.300,63.000,0.500,9.000,1.000,3.000,5.000,0
"05/08/08","11:04:15",2104.000,"cc",28287.324,6,0.100,1655.000,0.200,382.000,0.300,47.000,0.500,18.000,1.000,2.000,5.000,0
"05/08/08","11:04:21",2269.000,"cc",28353.188,6,0.100,1809.000,0.200,383.000,0.300,60.000,0.500,16.000,1.000,1.000,5.000,0
"05/08/08","11:04:27",2195.000,"cc",28273.512,6,0.100,1766.000,0.200,353.000,0.300,54.000,0.500,22.000,1.000,0,5.000,0
"05/08/08","11:04:33",2205.000,"cc",28346.465,6,0.100,1786.000,0.200,355.000,0.300,46.000,0.500,12.000,1.000,6.000,5.000,0
"05/08/08","11:04:39",2306.000,"cc",28315.543,6,0.100,1819.000,0.200,413.000,0.300,50.000,0.500,21.000,1.000,3.000,5.000,0
"05/08/08","11:04:45",2250.000,"cc",28324.238,6,0.100,1783.000,0.200,391.000,0.300,63.000,0.500,11.000,1.000,2.000,5.000,0
"05/08/08","11:04:51",2348.000,"cc",28333.002,6,0.100,1847.000,0.200,419.000,0.300,58.000,0.500,20.000,1.000,4.000,5.000,0
"05/08/08","11:04:57",2319.000,"cc",28243.256,6,0.100,1810.000,0.200,435.000,0.300,59.000,0.500,14.000,1.000,1.000,5.000,0
"05/08/08","11:05:03",2392.000,"cc",28362.211,6,0.100,1914.000,0.200,396.000,0.300,60.000,0.500,19.000,1.000,3.000,5.000,0
"05/08/08","11:05:09",2326.000,"cc",28283.697,6,0.100,1834.000,0.200,406.000,0.300,53.000,0.500,27.000,1.000,6.000,5.000,0
"05/08/08","11:05:15",2363.000,"cc",28329.051,6,0.100,1850.000,0.200,432.000,0.300,54.000,0.500,22.000,1.000,5.000,5.000,0
"05/08/08","11:05:21",2296.000,"cc",28283.758,6,0.100,1766.000,0.200,437.000,0.300,73.000,0.500,18.000,1.000,2.000,5.000,0
"05/08/08","11:05:27",2344.000,"cc",28360.348,6,0.100,1827.000,0.200,412.000,0.300,72.000,0.500,23.000,1.000,10.000,5.000,0
"05/08/08","11:05:33",2295.000,"cc",28319.598,6,0.100,1837.000,0.200,385.000,0.300,54.000,0.500,16.000,1.000,3.000,5.000,0
"05/08/08","11:05:39",2290.000,"cc",28330.195,6,0.100,1795.000,0.200,422.000,0.300,52.000,0.500,19.000,1.000,2.000,5.000,0
"05/08/08","11:05:45",2407.000,"cc",28323.836,6,0.100,1881.000,0.200,406.000,0.300,77.000,0.500,31.000,1.000,12.000,5.000,0
"05/08/08","11:05:51",2316.000,"cc",28303.688,6,0.100,1802.000,0.200,412.000,0.300,73.000,0.500,24.000,1.000,5.000,5.000,0
"05/08/08","11:05:57",2263.000,"cc",28242.830,6,0.100,1796.000,0.200,388.000,0.300,66.000,0.500,10.000,1.000,3.000,5.000,0
"05/08/08","11:06:03",2311.000,"cc",28385.377,6,0.100,1776.000,0.200,445.000,0.300,72.000,0.500,16.000,1.000,2.000,5.000,0
"05/08/08","11:06:09",2261.000,"cc",28332.285,6,0.100,1798.000,0.200,392.000,0.300,58.000,0.500,13.000,1.000,0,5.000,0
"05/08/08","11:06:15",2329.000,"cc",28330.141,6,0.100,1849.000,0.200,408.000,0.300,54.000,0.500,13.000,1.000,5.000,5.000,0
"05/08/08","11:06:21",2282.000,"cc",28362.773,6,0.100,1760.000,0.200,436.000,0.300,63.000,0.500,20.000,1.000,3.000,5.000,0
"05/08/08","11:06:27",2275.000,"cc",28264.438,6,0.100,1780.000,0.200,405.000,0.300,68.000,0.500,21.000,1.000,1.000,5.000,0
"05/08/08","11:06:33",2370.000,"cc",28287.065,6,0.100,1846.000,0.200,437.000,0.300,65.000,0.500,19.000,1.000,3.000,5.000,0
"05/08/08","11:06:39",2254.000,"cc",28353.256,6,0.100,1776.000,0.200,388.000,0.300,70.000,0.500,17.000,1.000,3.000,5.000,0
"05/08/08","11:06:45",2212.000,"cc",28298.053,6,0.100,1784.000,0.200,357.000,0.300,46.000,0.500,23.000,1.000,2.000,5.000,0
"05/08/08","11:06:51",2283.000,"cc",28281.168,6,0.100,1821.000,0.200,391.000,0.300,52.000,0.500,18.000,1.000,1.000,5.000,0
"05/08/08","11:06:57",2177.000,"cc",28372.494,6,0.100,1694.000,0.200,415.000,0.300,52.000,0.500,12.000,1.000,4.000,5.000,0
"05/08/08","11:07:03",2213.000,"cc",28303.854,6,0.100,1740.000,0.200,399.000,0.300,52.000,0.500,20.000,1.000,2.000,5.000,0
"05/08/08","11:07:09",2414.000,"cc",28347.859,6,0.100,1908.000,0.200,430.000,0.300,57.000,0.500,18.000,1.000,1.000,5.000,0
"05/08/08","11:07:15",2291.000,"cc",28299.783,6,0.100,1803.000,0.200,412.000,0.300,56.000,0.500,15.000,1.000,5.000,5.000,0
"05/08/08","11:07:21",2379.000,"cc",28336.178,6,0.100,1858.000,0.200,433.000,0.300,68.000,0.500,17.000,1.000,3.000,5.000,0
"05/08/08","11:07:27",2242.000,"cc",28293.990,6,0.100,1772.000,0.200,384.000,0.300,65.000,0.500,17.000,1.000,4.000,5.000,0
"05/08/08","11:07:33",2264.000,"cc",28250.131,6,0.100,1796.000,0.200,385.000,0.300,67.000,0.500,14.000,1.000,2.000,5.000,0
"05/08/08","11:07:39",2279.000,"cc",28320.877,6,0.100,1795.000,0.200,392.000,0.300,73.000,0.500,14.000,1.000,5.000,5.000,0
"05/08/08","11:07:45",2320.000,"cc",28313.648,6,0.100,1877.000,0.200,360.000,0.300,65.000,0.500,13.000,1.000,5.000,5.000,0
"05/08/08","11:07:51",2274.000,"cc",28391.738,6,0.100,1793.000,0.200,406.000,0.300,61.000,0.500,13.000,1.000,1.000,5.000,0
"05/08/08","11:07:57",2290.000,"cc",28304.363,6,0.100,1811.000,0.200,406.000,0.300,51.000,0.500,16.000,1.000,6.000,5.000,0
"05/08/08","11:08:03",2305.000,"cc",28247.156,6,0.100,1833.000,0.200,400.000,0.300,61.000,0.500,8.000,1.000,3.000,5.000,0
"05/08/08","11:08:09",2279.000,"cc",28327.188,6,0.100,1824.000,0.200,393.000,0.300,45.000,0.500,14.000,1.000,3.000,5.000,0
"05/08/08","11:08:15",2332.000,"cc",28355.240,6,0.100,1849.000,0.200,409.000,0.300,53.000,0.500,18.000,1.000,3.000,5.000,0
"05/08/08","11:08:21",2365.000,"cc",28341.871,6,0.100,1908.000,0.200,372.000,0.300,69.000,0.500,15.000,1.000,1.000,5.000,0
"05/08/08","11:08:27",2298.000,"cc",28283.545,6,0.100,1829.000,0.200,402.000,0.300,52.000,0.500,13.000,1.000,2.000,5.000,0
"05/08/08","11:08:33",2284.000,"cc",28317.758,6,0.100,1784.000,0.200,416.000,0.300,63.000,0.500,14.000,1.000,7.000,5.000,0
"05/08/08","11:08:39",2319.000,"cc",28320.143,6,0.100,1814.000,0.200,421.000,0.300,63.000,0.500,17.000,1.000,4.000,5.000,0
"05/08/08","11:08:45",2342.000,"cc",28329.979,6,0.100,1826.000,0.200,429.000,0.300,59.000,0.500,23.000,1.000,5.000,5.000,0
"05/08/08","11:08:51",2336.000,"cc",28321.695,6,0.100,1844.000,0.200,405.000,0.300,55.000,0.500,25.000,1.000,7.000,5.000,0
"05/08/08","11:08:57",2367.000,"cc",28286.150,6,0.100,1840.000,0.200,439.000,0.300,66.000,0.500,21.000,1.000,1.000,5.000,0
"05/08/08","11:09:03",2307.000,"cc",28298.699,6,0.100,1812.000,0.200,423.000,0.300,53.000,0.500,18.000,1.000,1.000,5.000,0
"05/08/08","11:09:09",2250.000,"cc",28311.729,6,0.100,1775.000,0.200,405.000,0.300,60.000,0.500,9.000,1.000,1.000,5.000,0
"05/08/08","11:09:15",2282.000,"cc",28329.453,6,0.100,1788.000,0.200,409.000,0.300,66.000,0.500,15.000,1.000,4.000,5.000,0
"05/08/08","11:09:21",2369.000,"cc",28341.727,6,0.100,1878.000,0.200,417.000,0.300,60.000,0.500,11.000,1.000,3.000,5.000,0
"05/08/08","11:09:27",2358.000,"cc",28284.395,6,0.100,1861.000,0.200,403.000,0.300,78.000,0.500,16.000,1.000,0,5.000,0
"05/08/08","11:09:33",2259.000,"cc",28325.795,6,0.100,1811.000,0.200,376.000,0.300,55.000,0.500,14.000,1.000,3.000,5.000,0
"05/08/08","11:09:39",2293.000,"cc",28304.809,6,0.100,1791.000,0.200,417.000,0.300,68.000,0.500,14.000,1.000,3.000,5.000,0
"05/08/08","11:09:45",2399.000,"cc",28310.221,6,0.100,1852.000,0.200,439.000,0.300,69.000,0.500,27.000,1.000,12.000,5.000,0
"05/08/08","11:09:51",2328.000,"cc",28356.772,6,0.100,1815.000,0.200,435.000,0.300,50.000,0.500,25.000,1.000,3.000,5.000,0
"05/08/08","11:09:57",2308.000,"cc",28303.209,6,0.100,1837.000,0.200,393.000,0.300,62.000,0.500,12.000,1.000,4.000,5.000,0
"05/08/08","11:10:03",2334.000,"cc",28270.514,6,0.100,1853.000,0.200,405.000,0.300,54.000,0.500,16.000,1.000,6.000,5.000,0
"05/08/08","11:10:09",2325.000,"cc",28332.231,6,0.100,1805.000,0.200,457.000,0.300,39.000,0.500,18.000,1.000,6.000,5.000,0
"05/08/08","11:10:15",2337.000,"cc",28342.715,6,0.100,1835.000,0.200,415.000,0.300,67.000,0.500,16.000,1.000,4.000,5.000,0
"05/08/08","11:10:21",2243.000,"cc",28312.535,6,0.100,1741.000,0.200,419.000,0.300,65.000,0.500,17.000,1.000,1.000,5.000,0
"05/08/08","11:10:27",2330.000,"cc",28303.492,6,0.100,1804.000,0.200,446.000,0.300,67.000,0.500,9.000,1.000,4.000,5.000,0
"05/08/08","11:10:33",2394.000,"cc",28318.016,6,0.100,1874.000,0.200,425.000,0.300,76.000,0.500,17.000,1.000,2.000,5.000,0
"05/08/08","11:10:39",2434.000,"cc",28293.809,6,0.100,1910.000,0.200,454.000,0.300,51.000,0.500,18.000,1.000,1.000,5.000,0
"05/08/08","11:10:45",2317.000,"cc",28336.131,6,0.100,1814.000,0.200,421.000,0.300,64.000,0.500,15.000,1.000,3.000,5.000,0
"05/08/08","11:10:51",2448.000,"cc",28331.900,6,0.100,1924.000,0.200,470.000,0.300,40.000,0.500,12.000,1.000,2.000,5.000,0
"05/08/08","11:10:57",2414.000,"cc",28333.315,6,0.100,1898.000,0.200,411.000,0.300,78.000,0.500,23.000,1.000,4.000,5.000,0
"05/08/08","11:11:03",2455.000,"cc",28288.387,6,0.100,1961.000,0.200,425.000,0.300,59.000,0.500,9.000,1.000,1.000,5.000,0
"05/08/08","11:11:09",2319.000,"cc",28343.941,6,0.100,1846.000,0.200,386.000,0.300,63.000,0.500,15.000,1.000,9.000,5.000,0
"05/08/08","11:11:15",2318.000,"cc",28315.191,6,0.100,1827.000,0.200,412.000,0.300,63.000,0.500,14.000,1.000,2.000,5.000,0
"05/08/08","11:11:21",2459.000,"cc",28327.764,6,0.100,1960.000,0.200,424.000,0.300,59.000,0.500,15.000,1.000,1.000,5.000,0
"05/08/08","11:11:27",2241.000,"cc",28320.291,6,0.100,1783.000,0.200,382.000,0.300,56.000,0.500,16.000,1.000,4.000,5.000,0
"05/08/08","11:11:33",2373.000,"cc",28274.086,6,0.100,1845.000,0.200,438.000,0.300,68.000,0.500,21.000,1.000,1.000,5.000,0
"05/08/08","11:11:39",2265.000,"cc",28301.518,6,0.100,1781.000,0.200,380.000,0.300,82.000,0.500,18.000,1.000,4.000,5.000,0
"05/08/08","11:11:45",2379.000,"cc",28301.647,6,0.100,1848.000,0.200,426.000,0.300,79.000,0.500,18.000,1.000,8.000,5.000,0
"05/08/08","11:11:51",2311.000,"cc",28326.529,6,0.100,1827.000,0.200,406.000,0.300,54.000,0.500,16.000,1.000,8.000,5.000,0
"05/08/08","11:11:57",2416.000,"cc",28309.354,6,0.100,1882.000,0.200,444.000,0.300,69.000,0.500,16.000,1.000,5.000,5.000,0
"05/08/08","11:12:03",2430.000,"cc",28319.512,6,0.100,1911.000,0.200,439.000,0.300,57.000,0.500,17.000,1.000,6.000,5.000,0
"05/08/08","11:12:09",2341.000,"cc",28365.746,6,0.100,1833.000,0.200,426.000,0.300,65.000,0.500,14.000,1.000,3.000,5.000,0
"05/08/08","11:12:15",2316.000,"cc",28312.709,6,0.100,1845.000,0.200,384.000,0.300,68.000,0.500,18.000,1.000,1.000,5.000,0
"05/08/08","11:12:21",2433.000,"cc",28307.777,6,0.100,1914.000,0.200,431.000,0.300,67.000,0.500,20.000,1.000,1.000,5.000,0
"05/08/08","11:12:27",2462.000,"cc",28280.176,6,0.100,1897.000,0.200,485.000,0.300,62.000,0.500,15.000,1.000,3.000,5.000,0
"05/08/08","11:12:33",2442.000,"cc",28289.068,6,0.100,1921.000,0.200,449.000,0.300,52.000,0.500,20.000,1.000,0,5.000,0
"05/08/08","11:12:39",2461.000,"cc",28327.641,6,0.100,1920.000,0.200,447.000,0.300,64.000,0.500,20.000,1.000,10.000,5.000,0
"05/08/08","11:12:45",2484.000,"cc",28323.789,6,0.100,1937.000,0.200,456.000,0.300,76.000,0.500,12.000,1.000,3.000,5.000,0
"05/08/08","11:12:51",2482.000,"cc",28374.313,6,0.100,1937.000,0.200,452.000,0.300,65.000,0.500,23.000,1.000,5.000,5.000,0
"05/08/08","11:12:57",2458.000,"cc",28391.147,6,0.100,1942.000,0.200,448.000,0.300,47.000,0.500,19.000,1.000,2.000,5.000,0
"05/08/08","11:13:03",2547.000,"cc",28240.102,6,0.100,1993.000,0.200,466.000,0.300,63.000,0.500,20.000,1.000,5.000,5.000,0
"05/08/08","11:13:09",2491.000,"cc",28330.856,6,0.100,1977.000,0.200,426.000,0.300,69.000,0.500,16.000,1.000,3.000,5.000,0
"05/08/08","11:13:15",2361.000,"cc",28317.484,6,0.100,1879.000,0.200,407.000,0.300,56.000,0.500,18.000,1.000,1.000,5.000,0
"05/08/08","11:13:21",2420.000,"cc",28292.943,6,0.100,1863.000,0.200,441.000,0.300,86.000,0.500,23.000,1.000,7.000,5.000,0
"05/08/08","11:13:27",2442.000,"cc",28282.537,6,0.100,1908.000,0.200,466.000,0.300,53.000,0.500,12.000,1.000,3.000,5.000,0
"05/08/08","11:13:33",2431.000,"cc",28321.607,6,0.100,1938.000,0.200,422.000,0.300,50.000,0.500,18.000,1.000,3.000,5.000,0
"05/08/08","11:13:39",2489.000,"cc",28385.795,6,0.100,1971.000,0.200,435.000,0.300,67.000,0.500,13.000,1.000,3.000,5.000,0
"05/08/08","11:13:45",2456.000,"cc",28255.449,6,0.100,1927.000,0.200,438.000,0.300,68.000,0.500,19.000,1.000,4.000,5.000,0
"05/08/08","11:13:51",2489.000,"cc",28284.393,6,0.100,1947.000,0.200,454.000,0.300,71.000,0.500,12.000,1.000,5.000,5.000,0
"05/08/08","11:13:57",2521.000,"cc",28312.107,6,0.100,1981.000,0.200,454.000,0.300,65.000,0.500,18.000,1.000,3.000,5.000,0
"05/08/08","11:14:03",2427.000,"cc",28325.254,6,0.100,1878.000,0.200,453.000,0.300,66.000,0.500,25.000,1.000,5.000,5.000,0
"05/08/08","11:14:09",2430.000,"cc",28353.523,6,0.100,1961.000,0.200,384.000,0.300,71.000,0.500,14.000,1.000,0,5.000,0
"05/08/08","11:14:15",2487.000,"cc",28329.773,6,0.100,1948.000,0.200,452.000,0.300,72.000,0.500,14.000,1.000,1.000,5.000,0
"05/08/08","11:14:21",2363.000,"cc",28255.467,6,0.100,1836.000,0.200,448.000,0.300,61.000,0.500,15.000,1.000,3.000,5.000,0
"05/08/08","11:14:27",2489.000,"cc",28312.254,6,0.100,1958.000,0.200,428.000,0.300,80.000,0.500,18.000,1.000,5.000,5.000,0
"05/08/08","11:14:33",2527.000,"cc",28296.861,6,0.100,1990.000,0.200,442.000,0.300,74.000,0.500,18.000,1.000,3.000,5.000,0
"05/08/08","11:14:39",2453.000,"cc",28354.258,6,0.100,1933.000,0.200,424.000,0.300,65.000,0.500,26.000,1.000,5.000,5.000,0
"05/08/08","11:14:45",2437.000,"cc",28325.703,6,0.100,1918.000,0.200,440.000,0.300,57.000,0.500,15.000,1.000,7.000,5.000,0
"05/08/08","11:14:51",2560.000,"cc",28272.918,6,0.100,2003.000,0.200,483.000,0.300,59.000,0.500,13.000,1.000,2.000,5.000,0
"05/08/08","11:14:57",2512.000,"cc",28274.500,6,0.100,1985.000,0.200,439.000,0.300,65.000,0.500,18.000,1.000,5.000,5.000,0
"05/08/08","11:15:03",2507.000,"cc",28335.836,6,0.100,1983.000,0.200,429.000,0.300,68.000,0.500,24.000,1.000,3.000,5.000,0
"05/08/08","11:15:09",2670.000,"cc",28352.363,6,0.100,2069.000,0.200,462.000,0.300,96.000,0.500,35.000,1.000,8.000,5.000,0
"05/08/08","11:15:15",2445.000,"cc",28288.096,6,0.100,1911.000,0.200,441.000,0.300,76.000,0.500,13.000,1.000,4.000,5.000,0
"05/08/08","11:15:21",2501.000,"cc",28365.039,6,0.100,1972.000,0.200,447.000,0.300,69.000,0.500,11.000,1.000,2.000,5.000,0
"05/08/08","11:15:27",2464.000,"cc",28318.688,6,0.100,1914.000,0.200,474.000,0.300,55.000,0.500,17.000,1.000,4.000,5.000,0
"05/08/08","11:15:33",2431.000,"cc",28287.061,6,0.100,1907.000,0.200,455.000,0.300,53.000,0.500,12.000,1.000,4.000,5.000,0
"05/08/08","11:15:39",2510.000,"cc",28313.316,6,0.100,1971.000,0.200,454.000,0.300,65.000,0.500,16.000,1.000,4.000,5.000,0
"05/08/08","11:15:45",2584.000,"cc",28369.539,6,0.100,2006.000,0.200,485.000,0.300,62.000,0.500,27.000,1.000,4.000,5.000,0
"05/08/08","11:15:51",2496.000,"cc",28292.881,6,0.100,1953.000,0.200,430.000,0.300,80.000,0.500,31.000,1.000,2.000,5.000,0
"05/08/08","11:15:57",2524.000,"cc",28383.945,6,0.100,1974.000,0.200,448.000,0.300,80.000,0.500,20.000,1.000,2.000,5.000,0
"05/08/08","11:16:03",2423.000,"cc",28262.928,6,0.100,1943.000,0.200,389.000,0.300,67.000,0.500,18.000,1.000,6.000,5.000,0
"05/08/08","11:16:09",2472.000,"cc",28306.508,6,0.100,1915.000,0.200,481.000,0.300,45.000,0.500,27.000,1.000,4.000,5.000,0
"05/08/08","11:16:15",2568.000,"cc",28350.938,6,0.100,2027.000,0.200,448.000,0.300,74.000,0.500,18.000,1.000,1.000,5.000,0
"05/08/08","11:16:21",2530.000,"cc",28359.721,6,0.100,1959.000,0.200,494.000,0.300,62.000,0.500,11.000,1.000,4.000,5.000,0
"05/08/08","11:16:27",2498.000,"cc",28322.264,6,0.100,1961.000,0.200,441.000,0.300,74.000,0.500,18.000,1.000,4.000,5.000,0
"05/08/08","11:16:33",2511.000,"cc",28291.440,6,0.100,1996.000,0.200,434.000,0.300,67.000,0.500,14.000,1.000,0,5.000,0
"05/08/08","11:16:39",2513.000,"cc",28279.897,6,0.100,1980.000,0.200,423.000,0.300,77.000,0.500,24.000,1.000,9.000,5.000,0
"05/08/08","11:16:45",2533.000,"cc",28292.096,6,0.100,1953.000,0.200,482.000,0.300,71.000,0.500,24.000,1.000,3.000,5.000,0
"05/08/08","11:16:51",2548.000,"cc",28340.697,6,0.100,1970.000,0.200,483.000,0.300,69.000,0.500,20.000,1.000,6.000,5.000,0
"05/08/08","11:16:57",2437.000,"cc",28315.926,6,0.100,1925.000,0.200,424.000,0.300,67.000,0.500,18.000,1.000,3.000,5.000,0
"05/08/08","11:17:03",2524.000,"cc",28304.795,6,0.100,1987.000,0.200,432.000,0.300,76.000,0.500,25.000,1.000,4.000,5.000,0
"05/08/08","11:17:09",2509.000,"cc",28273.357,6,0.100,1988.000,0.200,429.000,0.300,68.000,0.500,23.000,1.000,1.000,5.000,0
"05/08/08","11:17:15",2550.000,"cc",28359.916,6,0.100,1991.000,0.200,474.000,0.300,63.000,0.500,20.000,1.000,2.000,5.000,0
"05/08/08","11:17:21",2485.000,"cc",28347.879,6,0.100,1951.000,0.200,444.000,0.300,64.000,0.500,22.000,1.000,4.000,5.000,0
"05/08/08","11:17:27",2500.000,"cc",28257.787,6,0.100,1962.000,0.200,453.000,0.300,63.000,0.500,21.000,1.000,1.000,5.000,0
"05/08/08","11:17:33",2525.000,"cc",28359.467,6,0.100,2011.000,0.200,422.000,0.300,61.000,0.500,26.000,1.000,5.000,5.000,0
"05/08/08","11:17:39",2575.000,"cc",28310.566,6,0.100,1995.000,0.200,470.000,0.300,86.000,0.500,21.000,1.000,3.000,5.000,0
"05/08/08","11:17:45",2581.000,"cc",28314.508,6,0.100,2038.000,0.200,450.000,0.300,65.000,0.500,25.000,1.000,3.000,5.000,0
"05/08/08","11:17:51",2450.000,"cc",28320.779,6,0.100,1938.000,0.200,436.000,0.300,62.000,0.500,9.000,1.000,5.000,5.000,0
"05/08/08","11:17:57",2641.000,"cc",28329.092,6,0.100,2049.000,0.200,497.000,0.300,72.000,0.500,16.000,1.000,7.000,5.000,0
"05/08/08","11:18:03",2551.000,"cc",28345.826,6,0.100,1992.000,0.200,457.000,0.300,73.000,0.500,26.000,1.000,3.000,5.000,0
"05/08/08","11:18:09",2494.000,"cc",28373.885,6,0.100,1971.000,0.200,439.000,0.300,64.000,0.500,18.000,1.000,2.000,5.000,0
"05/08/08","11:18:15",2481.000,"cc",28258.227,6,0.100,1954.000,0.200,441.000,0.300,62.000,0.500,19.000,1.000,5.000,5.000,0